Date String (YYYY-MM-DD hh:mm:ss) UTC,Instrument flags,Ambient pressure (hPa),Sample flow (lpm),Bypass flow (lpm),Sample temperature (°C),Ambient temperature (°C),ASC tube jacket temperature (°C),LED temperature (°C),Box temperature (°C),Sample RH (%),Span deviation,Mass concentration (μg/m³),Mass concentration (μg/m³),Mass concentration (μg/m³)
DateTimeUTC,F1_M11,P_M11,Q1_M11,Q2_M11,T1_M11,T2_M11,T3_M11,T4_M11,T5_M11,U1_M11,ZSPAN_M11,X2_M11,X0_M11,X1_M11
2022-01-10 20:00:00,,0837.3,4.99,0.00,27.4,26.8,00.0,36.2,29.4,06.3,0000.0,0000.85,0006.08,0000.51
2022-01-10 20:01:00,,0837.3,5.01,0.00,27.5,26.8,00.0,36.3,29.4,06.7,0000.0,0000.91,0005.30,0000.54
2022-01-10 20:02:00,,0837.2,4.99,0.00,27.5,26.9,00.0,36.3,29.4,06.5,0000.0,0001.00,0005.62,0000.59
2022-01-10 20:03:00,,0837.2,5.01,0.00,27.5,26.9,00.0,36.3,29.4,06.5,0000.0,0001.07,0005.84,0000.65
2022-01-10 20:04:00,,0837.2,4.99,0.00,27.5,26.9,00.0,36.3,29.4,06.9,0000.0,0001.12,0005.95,0000.70
2022-01-10 20:05:00,,0837.1,5.01,0.00,27.6,26.9,00.0,36.3,29.5,06.8,0000.0,0001.19,0004.79,0000.76
2022-01-10 20:06:00,,0837.2,4.99,0.00,27.6,26.9,00.0,36.4,29.5,06.7,0000.0,0001.26,0004.52,0000.81
2022-01-10 20:07:00,,0837.2,5.01,0.00,27.6,27.0,00.0,36.4,29.5,06.7,0000.0,0001.31,0004.57,0000.85
2022-01-10 20:08:00,,0837.2,5.00,0.00,27.6,27.0,00.0,36.4,29.5,06.7,0000.0,0001.32,0004.96,0000.90
2022-01-10 20:09:00,,0837.2,5.00,0.00,27.7,27.1,00.0,36.4,29.6,06.8,0000.0,0001.40,0004.89,0000.96
2022-01-10 20:10:00,,0837.2,5.00,0.00,27.7,27.1,00.0,36.5,29.6,06.9,0000.0,0001.47,0004.94,0001.02
2022-01-10 20:11:00,,0837.1,5.01,0.00,27.7,27.1,00.0,36.5,29.6,06.6,0000.0,0001.53,0005.04,0001.09
2022-01-10 20:12:00,,0837.1,5.00,0.00,27.7,27.1,00.0,36.5,29.6,06.3,0000.0,0001.64,0005.15,0001.15
2022-01-10 20:13:00,,0837.1,5.00,0.00,27.8,27.1,00.0,36.5,29.7,06.6,0000.0,0001.67,0005.03,0001.19
2022-01-10 20:14:00,,0837.1,4.99,0.00,27.8,27.1,00.0,36.6,29.7,06.6,0000.0,0001.73,0005.02,0001.21
2022-01-10 20:15:00,,0837.1,5.00,0.00,27.8,27.1,00.0,36.6,29.7,06.7,0000.0,0001.79,0005.14,0001.22
2022-01-10 20:16:00,,0837.1,5.01,0.00,27.8,27.2,00.0,36.6,29.7,06.6,0000.0,0001.80,0005.14,0001.22
2022-01-10 20:17:00,,0837.0,5.00,0.00,27.8,27.2,00.0,36.6,29.8,06.4,0000.0,0001.78,0005.21,0001.22
2022-01-10 20:18:00,,0837.1,5.00,0.00,27.9,27.2,00.0,36.7,29.8,06.5,0000.0,0001.77,0005.24,0001.19
2022-01-10 20:19:00,,0837.0,5.00,0.00,27.9,27.2,00.0,36.7,29.8,06.7,0000.0,0001.78,0005.25,0001.18
2022-01-10 20:20:00,,0837.0,4.99,0.00,27.9,27.3,00.0,36.7,29.8,06.4,0000.0,0001.72,0003.26,0001.14
2022-01-10 20:21:00,,0837.0,5.01,0.00,28.0,27.3,00.0,36.7,29.9,06.3,0000.0,0001.65,0003.64,0001.10
2022-01-10 20:22:00,,0837.0,5.00,0.00,28.0,27.3,00.0,36.7,29.9,06.4,0000.0,0001.58,0003.59,0001.04
2022-01-10 20:23:00,,0837.0,4.99,0.00,28.0,27.4,00.0,36.8,29.9,06.6,0000.0,0001.47,0003.36,0000.97
2022-01-10 20:24:00,,0837.0,5.02,0.00,28.0,27.4,00.0,36.8,29.9,06.5,0000.0,0001.38,0003.21,0000.91
2022-01-10 20:25:00,,0836.9,4.99,0.00,28.0,27.4,00.0,36.8,29.9,06.3,0000.0,0001.30,0003.03,0000.87
2022-01-10 20:26:00,,0836.9,5.00,0.00,28.0,27.4,00.0,36.8,29.9,06.3,0000.0,0001.24,0002.90,0000.85
2022-01-10 20:27:00,,0836.9,5.00,0.00,28.1,27.5,00.0,36.8,30.0,06.2,0000.0,0001.19,0002.81,0000.84
2022-01-10 20:28:00,,0836.9,4.99,0.00,28.1,27.5,00.0,36.9,30.0,06.4,0000.0,0001.17,0002.86,0000.83
2022-01-10 20:29:00,,0836.8,5.01,0.00,28.1,27.5,00.0,36.9,30.0,06.6,0000.0,0001.17,0002.81,0000.84
2022-01-10 20:30:00,,0836.9,4.98,0.00,28.1,27.5,00.0,36.9,30.0,06.5,0000.0,0001.20,0002.83,0000.85
2022-01-10 20:31:00,,0836.9,5.02,0.00,28.1,27.5,00.0,36.9,30.0,06.5,0000.0,0001.26,0002.97,0000.87
2022-01-10 20:32:00,,0836.9,4.99,0.00,28.1,27.5,00.0,36.9,30.0,06.5,0000.0,0001.33,0002.79,0000.89
2022-01-10 20:33:00,,0836.9,5.02,0.00,28.2,27.5,00.0,37.0,30.0,06.3,0000.0,0001.37,0003.21,0000.91
2022-01-10 20:34:00,,0836.8,4.99,0.00,28.2,27.5,00.0,37.0,30.0,06.1,0000.0,0001.41,0003.38,0000.95
2022-01-10 20:35:00,,0836.8,5.00,0.00,28.2,27.5,00.0,37.0,30.1,06.4,0000.0,0001.41,0003.33,0000.97
2022-01-10 20:36:00,,0836.8,5.00,0.00,28.2,27.5,00.0,37.0,30.1,06.3,0000.0,0001.43,0003.40,0000.98
2022-01-10 20:37:00,,0836.8,4.99,0.00,28.2,27.5,00.0,37.1,30.1,06.1,0000.0,0001.42,0003.66,0000.98
2022-01-10 20:38:00,,0836.8,5.01,0.00,28.2,27.5,00.0,37.1,30.1,06.0,0000.0,0001.42,0003.67,0000.96
2022-01-10 20:39:00,,0836.8,5.00,0.00,28.2,27.5,00.0,37.1,30.1,06.3,0000.0,0001.41,0003.51,0000.96
2022-01-10 20:40:00,,0836.8,4.99,0.00,28.3,27.5,00.0,37.1,30.1,06.4,0000.0,0001.41,0003.68,0000.95
2022-01-10 20:41:00,,0836.8,5.01,0.00,28.3,27.6,00.0,37.1,30.1,06.1,0000.0,0001.44,0004.33,0000.98
2022-01-10 20:42:00,,0836.8,4.99,0.00,28.3,27.6,00.0,37.1,30.1,06.2,0000.0,0001.43,0004.28,0000.99
2022-01-10 20:43:00,,0836.8,5.01,0.00,28.3,27.6,00.0,37.1,30.1,06.4,0000.0,0001.43,0004.05,0000.97
2022-01-10 20:44:00,,0836.8,5.00,0.00,28.3,27.6,00.0,37.1,30.1,06.2,0000.0,0001.42,0003.60,0000.98
2022-01-10 20:45:00,,0836.8,4.99,0.00,28.3,27.6,00.0,37.2,30.2,06.2,0000.0,0001.41,0003.60,0000.97
2022-01-10 20:46:00,,0836.9,5.01,0.00,28.3,27.7,00.0,37.2,30.2,06.2,0000.0,0001.42,0003.70,0000.97
2022-01-10 20:47:00,,0836.9,5.00,0.00,28.4,27.7,00.0,37.2,30.2,06.1,0000.0,0001.44,0003.84,0000.97
2022-01-10 20:48:00,,0836.8,4.99,0.00,28.4,27.7,00.0,37.2,30.2,06.0,0000.0,0001.44,0004.23,0000.99
2022-01-10 20:49:00,,0836.8,5.01,0.00,28.4,27.7,00.0,37.2,30.3,06.1,0000.0,0001.47,0004.18,0001.01
2022-01-10 20:50:00,,0836.8,5.00,0.00,28.4,27.7,00.0,37.3,30.3,06.2,0000.0,0001.48,0004.28,0001.03
2022-01-10 20:51:00,,0836.8,5.00,0.00,28.4,27.8,00.0,37.3,30.3,06.2,0000.0,0001.51,0004.41,0001.05
2022-01-10 20:52:00,,0836.8,5.00,0.00,28.4,27.8,00.0,37.3,30.3,06.3,0000.0,0001.46,0004.64,0001.04
2022-01-10 20:53:00,,0836.7,4.99,0.00,28.5,27.8,00.0,37.3,30.3,06.2,0000.0,0001.43,0004.60,0001.03
2022-01-10 20:54:00,,0836.8,5.00,0.00,28.5,27.8,00.0,37.3,30.3,06.3,0000.0,0001.38,0005.18,0001.04
2022-01-10 20:55:00,,0836.7,5.00,0.00,28.5,27.8,00.0,37.3,30.4,06.2,0000.0,0001.38,0005.72,0001.04
2022-01-10 20:56:00,,0836.7,5.00,0.00,28.5,27.9,00.0,37.4,30.4,06.2,0000.0,0001.40,0005.69,0001.06
2022-01-10 20:57:00,,0836.8,4.99,0.00,28.5,27.9,00.0,37.4,30.4,06.2,0000.0,0001.42,0005.61,0001.09
2022-01-10 20:58:00,,0836.7,5.01,0.00,28.6,27.9,00.0,37.4,30.4,06.0,0000.0,0001.48,0005.69,0001.13
2022-01-10 20:59:00,,0836.7,4.99,0.00,28.6,27.9,00.0,37.4,30.4,06.2,0000.0,0001.53,0005.10,0001.17
